Location: Unspecified
(0.0000°N, 0.0000°E)
Time: 03:16:04
(UTC+00:00)

A-11 Canister half - Pass Details

Date: 15 February 2023
Orbit: 1526 x 1682 km, 47.3° (Epoch: 25 March)

Event Time Altitude Azimuth Distance (km) Brightness Sun altitude
Rises 13:08:06 0° 290° (WNW) 4,789 11.7 71.6°
Reaches altitude 10° 13:12:01 10° 276° (W) 3,831 11.4 70.9°
Maximum altitude 13:19:20 24° 227° (SW) 2,937 11.3 69.5°
Drops below altitude 10° 13:26:52 10° 178° (S) 3,919 11.5 68.0°
Sets 13:31:00 0° 164° (SSE) 4,923 11.7 67.1°
